{"data":{"norad_id":65836,"intl_designator":"2025-221P","name":"STARLINK-35356","alt_names":[],"object_type":"PAYLOAD","status":"ACTIVE","operator":null,"country":"US","launch_date":"2025-09-29","launch_site_code":"AFWTR","launch_vehicle":null,"mission":null,"orbit_class":"UNKNOWN","rcs_meters":null,"size_class":null,"mass_kg":null,"dimensions":null,"purposes":["comms"],"wikipedia_slug":null,"has_3d_model":false,"image_url":null,"decayed_at":null,"tle_current":{"epoch":"2026-09-20T11:09:32.138784Z","epoch_age_seconds":109157,"freshness":"FRESH","line1":"1 65836U 25221P   26263.46495531  .00017566  00000+0  52969-3 0  9994","line2":"2 65836  53.1588 261.5593 0001734  87.2911 272.8290 15.34407440 54588","mean_motion":15.3440744,"eccentricity":0.0001734,"inclination_deg":53.1588,"raan_deg":261.5593,"arg_perigee_deg":87.2911,"mean_anomaly_deg":272.829,"bstar":0.00052969,"rev_number":5458,"period_min":93.847303034453,"perigee_km":461.49492918532,"apogee_km":463.86732491178,"semimajor_km":6840.8181270485,"source":"CELESTRAK","updated_at":"2026-09-21T09:00:35.721869Z"}}}